When you browse on this site, cookies collect data to enhance your experience and personalize the content and advertising you see.
Visit our Privacy Policy to learn more. By continuing to use the site, you agree to this use of cookies and data.
  • In Denmark
  • List of Countries
  • For 7 days
  • Water Temperature
  • Satellite Maps
  • Weather Map
  • Weather Widgets
  • user-avatar
    Login

    Hourly Weather Lisburn

    Today, 23 April, Tuesday

    Time Temperature Precipitation Wind Pressure Humidity
    00:00 +11°C° 0.1 mm 3 mps 746 mmHg 89%
    01:00 +10°C° 0 mm 3 mps 746 mmHg 91%
    02:00 +10°C° 0 mm 3 mps 745 mmHg 92%
    03:00 +9°C° 0 mm 3 mps 745 mmHg 94%
    04:00 +9°C° 0 mm 3 mps 745 mmHg 94%
    05:00 +10°C° 0 mm 2 mps 745 mmHg 94%
    06:00 +10°C° 0 mm 2 mps 745 mmHg 94%
    07:00 +11°C° 0 mm 3 mps 745 mmHg 91%
    08:00 +12°C° 0 mm 3 mps 745 mmHg 87%
    09:00 +13°C° 0 mm 4 mps 745 mmHg 84%
    10:00 +14°C° 0 mm 4 mps 745 mmHg 81%
    11:00 +14°C° 0 mm 4 mps 744 mmHg 77%
    12:00 +15°C° 0 mm 5 mps 744 mmHg 73%
    13:00 +16°C° 0 mm 5 mps 744 mmHg 72%
    14:00 +16°C° 0 mm 6 mps 743 mmHg 71%
    15:00 +17°C° 0 mm 6 mps 743 mmHg 71%
    16:00 +16°C° 0 mm 6 mps 743 mmHg 73%
    17:00 +16°C° 0 mm 6 mps 742 mmHg 76%
    18:00 +16°C° 0 mm 5 mps 742 mmHg 78%
    19:00 +15°C° 0 mm 6 mps 742 mmHg 78%
    20:00 +14°C° 0 mm 6 mps 743 mmHg 79%
    21:00 +13°C° 0 mm 6 mps 743 mmHg 79%
    22:00 +13°C° 0.1 mm 6 mps 743 mmHg 80%
    23:00 +11°C° 0.1 mm 6 mps 742 mmHg 81%

    Tomorrow, 24 April, Wednesday

    Time Temperature Precipitation Wind Pressure Humidity
    00:00 +10°C° 0.1 mm 6 mps 742 mmHg 82%
    01:00 +10°C° 0 mm 6 mps 742 mmHg 84%
    02:00 +9°C° 0 mm 6 mps 741 mmHg 86%
    03:00 +8°C° 0 mm 6 mps 741 mmHg 89%
    04:00 +8°C° 0 mm 6 mps 741 mmHg 89%
    05:00 +8°C° 0 mm 6 mps 740 mmHg 89%
    06:00 +8°C° 0 mm 6 mps 740 mmHg 90%
    07:00 +9°C° 0 mm 7 mps 740 mmHg 89%
    08:00 +10°C° 0 mm 7 mps 740 mmHg 88%
    09:00 +10°C° 0 mm 8 mps 740 mmHg 86%
    10:00 +11°C° 0 mm 8 mps 739 mmHg 83%
    11:00 +12°C° 0 mm 8 mps 739 mmHg 80%
    12:00 +13°C° 0 mm 9 mps 738 mmHg 78%
    13:00 +12°C° 0.2 mm 8 mps 738 mmHg 82%
    14:00 +12°C° 0.2 mm 8 mps 737 mmHg 86%
    15:00 +11°C° 0.2 mm 7 mps 737 mmHg 90%
    16:00 +11°C° 1.7 mm 7 mps 737 mmHg 92%
    17:00 +10°C° 1.7 mm 7 mps 737 mmHg 94%
    18:00 +10°C° 1.7 mm 6 mps 737 mmHg 96%
    19:00 +9°C° 0 mm 5 mps 737 mmHg 96%
    20:00 +9°C° 0 mm 5 mps 738 mmHg 96%
    21:00 +8°C° 0 mm 4 mps 738 mmHg 96%
    22:00 +8°C° 0 mm 4 mps 739 mmHg 96%
    23:00 +9°C° 0 mm 3 mps 739 mmHg 96%

    Day after tomorrow, 25 April, Thursday

    Time Temperature Precipitation Wind Pressure Humidity
    00:00 +8°C° 0 mm 3 mps 740 mmHg 96%
    01:00 +8°C° 0.1 mm 3 mps 740 mmHg 97%
    02:00 +8°C° 0.1 mm 3 mps 740 mmHg 97%
    03:00 +7°C° 0.1 mm 3 mps 740 mmHg 97%
    04:00 +7°C° 0 mm 3 mps 740 mmHg 97%
    05:00 +7°C° 0 mm 3 mps 740 mmHg 97%
    06:00 +7°C° 0 mm 3 mps 740 mmHg 97%
    07:00 +7°C° 0.1 mm 4 mps 740 mmHg 95%
    08:00 +8°C° 0.1 mm 6 mps 740 mmHg 92%
    09:00 +9°C° 0.1 mm 7 mps 740 mmHg 90%
    10:00 +9°C° 0.5 mm 6 mps 740 mmHg 88%
    11:00 +10°C° 0.5 mm 6 mps 740 mmHg 86%
    12:00 +10°C° 0.5 mm 5 mps 740 mmHg 84%
    13:00 +12°C° 0.1 mm 5 mps 740 mmHg 80%
    14:00 +12°C° 0.1 mm 5 mps 741 mmHg 75%
    15:00 +13°C° 0.1 mm 5 mps 741 mmHg 70%
    16:00 +12°C° 0.2 mm 4 mps 741 mmHg 74%
    17:00 +12°C° 0.2 mm 4 mps 741 mmHg 78%
    18:00 +11°C° 0.2 mm 4 mps 742 mmHg 82%
    19:00 +9°C° 0 mm 3 mps 742 mmHg 85%
    20:00 +8°C° 0 mm 3 mps 743 mmHg 89%
    21:00 +5°C° 0 mm 3 mps 744 mmHg 92%
    22:00 +5°C° 0 mm 3 mps 744 mmHg 92%
    23:00 +6°C° 0 mm 2 mps 744 mmHg 92%

    26 April, Friday

    Time Temperature Precipitation Wind Pressure Humidity
    00:00 +5°C° 0 mm 2 mps 744 mmHg 92%
    01:00 +6°C° 0 mm 1 mps 744 mmHg 92%
    02:00 +6°C° 0 mm 1 mps 745 mmHg 91%
    03:00 +5°C° 0 mm 0 mps 745 mmHg 91%
    04:00 +5°C° 0 mm 0 mps 745 mmHg 91%
    05:00 +6°C° 0 mm 0 mps 745 mmHg 92%
    06:00 +6°C° 0 mm 0 mps 746 mmHg 92%
    07:00 +9°C° 0 mm 1 mps 746 mmHg 88%
    08:00 +10°C° 0 mm 1 mps 747 mmHg 84%
    09:00 +12°C° 0 mm 1 mps 747 mmHg 79%
    10:00 +13°C° 0 mm 1 mps 748 mmHg 74%
    11:00 +14°C° 0 mm 1 mps 748 mmHg 69%
    12:00 +15°C° 0 mm 1 mps 749 mmHg 64%
    13:00 +12°C° 0.6 mm 4 mps 749 mmHg 72%
    14:00 +10°C° 0.6 mm 6 mps 750 mmHg 80%
    15:00 +9°C° 0.6 mm 8 mps 751 mmHg 88%
    16:00 +7°C° 0.2 mm 8 mps 751 mmHg 86%
    17:00 +6°C° 0.2 mm 7 mps 752 mmHg 84%
    18:00 +7°C° 0.2 mm 6 mps 753 mmHg 81%
    19:00 +5°C° 0 mm 5 mps 754 mmHg 81%
    20:00 +3°C° 0 mm 5 mps 754 mmHg 81%
    21:00 +3°C° 0 mm 4 mps 755 mmHg 81%
    22:00 +3°C° 0 mm 4 mps 756 mmHg 82%
    23:00 +2°C° 0 mm 3 mps 756 mmHg 83%

    27 April, Saturday

    Time Temperature Precipitation Wind Pressure Humidity
    00:00 +2°C° 0 mm 3 mps 756 mmHg 85%
    01:00 +2°C° 0 mm 3 mps 757 mmHg 87%
    02:00 +1°C° 0 mm 3 mps 757 mmHg 90%
    03:00 +1°C° 0 mm 3 mps 757 mmHg 92%
    04:00 +1°C° 0 mm 3 mps 757 mmHg 93%
    05:00 +1°C° 0 mm 3 mps 758 mmHg 93%
    06:00 +2°C° 0 mm 3 mps 758 mmHg 94%
    07:00 +3°C° 0 mm 3 mps 759 mmHg 86%
    08:00 +5°C° 0 mm 4 mps 759 mmHg 78%
    09:00 +7°C° 0 mm 5 mps 760 mmHg 70%
    10:00 +8°C° 0 mm 4 mps 760 mmHg 66%
    11:00 +8°C° 0 mm 4 mps 760 mmHg 63%
    12:00 +10°C° 0 mm 4 mps 761 mmHg 59%
    13:00 +10°C° 0 mm 4 mps 761 mmHg 59%
    14:00 +10°C° 0 mm 3 mps 761 mmHg 58%
    15:00 +11°C° 0 mm 3 mps 761 mmHg 57%
    16:00 +10°C° 0 mm 3 mps 762 mmHg 63%
    17:00 +10°C° 0 mm 3 mps 762 mmHg 68%
    18:00 +9°C° 0 mm 3 mps 762 mmHg 73%
    19:00 +9°C° 0.1 mm 3 mps 762 mmHg 78%
    20:00 +8°C° 0.1 mm 3 mps 762 mmHg 83%
    21:00 +6°C° 0.1 mm 4 mps 762 mmHg 88%
    22:00 +7°C° 0.2 mm 4 mps 761 mmHg 89%
    23:00 +7°C° 0.2 mm 5 mps 760 mmHg 91%

    28 April, Sunday

    Time Temperature Precipitation Wind Pressure Humidity
    00:00 +7°C° 0.2 mm 6 mps 760 mmHg 93%
    01:00 +8°C° 0.1 mm 6 mps 760 mmHg 93%
    02:00 +8°C° 0.1 mm 6 mps 759 mmHg 93%
    03:00 +8°C° 0.1 mm 6 mps 759 mmHg 94%
    04:00 +9°C° 0 mm 6 mps 759 mmHg 94%
    05:00 +9°C° 0 mm 6 mps 759 mmHg 94%
    06:00 +9°C° 0 mm 6 mps 759 mmHg 94%
    07:00 +10°C° 0 mm 6 mps 759 mmHg 91%
    08:00 +11°C° 0 mm 6 mps 759 mmHg 88%
    09:00 +13°C° 0 mm 6 mps 760 mmHg 85%
    10:00 +13°C° 0 mm 6 mps 760 mmHg 84%
    11:00 +14°C° 0 mm 6 mps 759 mmHg 83%
    12:00 +14°C° 0 mm 6 mps 759 mmHg 83%
    13:00 +14°C° 0 mm 6 mps 759 mmHg 84%
    14:00 +14°C° 0 mm 6 mps 759 mmHg 85%
    15:00 +14°C° 0 mm 6 mps 758 mmHg 86%
    16:00 +13°C° 0.1 mm 6 mps 758 mmHg 86%
    17:00 +13°C° 0.1 mm 6 mps 757 mmHg 86%
    18:00 +12°C° 0.1 mm 7 mps 757 mmHg 85%
    19:00 +13°C° 0.1 mm 6 mps 757 mmHg 87%
    20:00 +11°C° 0.1 mm 6 mps 757 mmHg 89%
    21:00 +10°C° 0.1 mm 5 mps 756 mmHg 91%
    22:00 +10°C° 0.2 mm 5 mps 756 mmHg 93%
    23:00 +10°C° 0.2 mm 5 mps 755 mmHg 94%
    Show more